Dewpoint
64 64 64 64 63 63 62 62 61 60 59 58 58 56 56 55 55 54 54 54 53 54 52 52 52 51 52 53 55 56 56 55 52 48 44 41 40 43 47 43 41 43 46 47 45 43 38 41 37 35 42 45 42 37 34 31 34 38 40 40 33 32 33
64 63 64 65 64 62 61 61 60 59 59 58 57 57 56 54 54 54 53 52 52 51 50 52 53 53 53 53 53 53 53 52 51 50 46 44 44 42 43 44 40 36 37 41 42 40 37 37 31 33 38 45 46 43 40 39 38 40 39 38 34 34 35
63 62 62 62 63 63 61 60 60 59 57 58 57 55 54 52 53 54 53 54 53 51 50 51 50 51 51 52 52 52 52 51 51 51 49 49 48 48 48 47 43 41 41 40 40 41 38 39 31 23 30 37 42 42 41 38 39 36 33 34 34 27 31
63 62 61 61 60 60 60 60 59 59 58 57 56 56 54 53 53 53 54 53 52 50 49 47 46 46 50 50 50 50 50 50 49 49 49 49 47 46 45 42 42 42 41 41 43 40 40 40 37 32 31 24 27 37 38 37 38 29 22 29 27 29 31
62 61 62 61 60 59 59 59 59 58 58 57 56 55 55 54 55 54 53 52 51 50 48 46 46 44 45 45 47 48 49 49 49 48 48 46 47 45 45 43 43 43 44 43 42 42 41 38 39 36 30 29 27 25 30 39 32 27 20 21 19 25 25
63 62 62 61 61 60 60 60 59 57 56 56 55 55 54 54 53 53 53 51 50 50 48 45 46 45 46 45 46 46 48 49 49 50 47 48 46 43 41 43 42 43 42 42 42 42 42 41 38 36 32 28 33 27 23 27 23 21 17 17 17 18 18
63 63 62 61 60 60 60 60 59 57 55 54 55 55 54 52 51 52 52 51 50 49 48 47 47 44 45 41 44 44 45 46 47 48 47 47 47 46 45 42 43 42 42 43 42 40 40 40 37 37 37 35 35 22 20 18 19 18 15 13 18 18 18
63 62 62 61 60 60 60 59 58 56 55 55 54 54 52 53 53 53 51 50 49 49 47 47 45 46 46 42 46 47 45 46 46 47 47 47 45 44 47 44 43 42 41 40 40 41 38 39 39 38 36 34 33 27 25 21 19 22 16 18 19 18 20
62 62 61 61 61 61 60 58 58 57 56 55 55 54 54 53 51 50 49 49 48 48 47 46 46 45 46 45 45 46 44 44 46 46 46 46 46 46 45 44 42 40 41 40 41 41 39 39 38 38 36 34 31 26 27 28 28 23 16 21 20 20 23
62 62 61 62 62 61 60 59 58 56 56 55 54 54 52 51 50 49 48 48 48 47 46 45 45 45 45 44 44 44 45 45 45 44 45 46 46 44 43 43 40 39 40 42 41 41 41 40 38 38 35 34 35 30 28 28 31 27 20 24 23 22 26
62 62 61 61 61 59 58 58 58 57 56 54 54 53 52 51 50 49 48 47 48 47 46 45 44 44 46 45 45 45 44 45 45 45 45 44 45 44 41 40 41 40 41 41 40 41 41 41 37 37 37 36 35 34 33 32 31 30 29 30 27 26 28
62 61 61 60 60 59 57 57 57 56 55 54 52 53 51 50 50 49 48 47 47 45 45 45 45 45 45 45 44 43 43 44 43 42 44 43 43 43 42 41 41 40 42 41 40 40 40 40 36 34 35 36 37 37 36 34 29 32 34 33 32 31 30
60 61 60 60 59 58 56 56 55 55 55 53 52 52 50 49 49 48 47 46 44 44 44 44 45 44 44 44 43 43 43 43 42 41 41 41 40 42 42 42 41 41 40 38 38 39 38 38 38 34 35 36 34 37 35 33 34 33 34 33 33 34 30
61 60 59 59 58 57 56 55 55 55 53 53 52 50 48 48 47 47 44 43 42 43 43 45 45 45 44 43 42 41 40 40 39 40 41 41 39 40 38 37 37 39 39 39 37 37 35 33 35 35 35 33 33 35 35 35 34 34 36 36 35 34 34
60 59 59 58 57 55 55 55 55 53 52 51 50 49 48 48 46 45 43 42 42 41 42 42 44 44 42 42 42 40 40 38 39 40 40 39 40 40 40 38 37 39 39 37 37 33 33 31 28 29 31 33 31 34 35 35 34 35 35 36 35 34 33
59 58 58 57 56 54 54 55 54 53 51 51 49 48 47 47 46 44 43 42 40 41 41 42 44 43 42 41 38 40 40 40 40 41 40 38 37 39 40 41 40 41 42 40 38 38 37 35 33 32 34 32 34 34 35 36 37 36 35 34 37 33 34
59 58 57 57 56 55 54 54 52 52 51 50 47 48 47 45 45 44 43 42 41 40 41 42 42 41 40 40 39 39 38 40 40 40 38 36 37 39 39 40 41 41 40 39 37 37 37 38 36 33 33 33 33 32 36 38 38 36 35 35 36 32 34
58 58 57 56 56 55 54 53 52 50 50 48 47 47 46 45 46 44 44 41 41 40 40 40 40 40 42 41 39 39 37 37 39 38 39 39 39 40 41 39 38 39 40 39 38 36 37 39 35 34 33 32 31 33 36 38 37 36 36 35 34 35 34
58 58 57 56 55 54 54 53 51 51 48 47 47 48 46 44 44 42 42 40 40 40 38 39 38 39 39 41 41 40 39 39 39 38 38 38 38 40 40 39 39 38 38 39 38 37 38 38 36 34 32 32 31 33 38 37 35 36 34 32 34 33 35
58 57 56 55 55 54 52 52 51 49 48 47 47 47 45 44 44 43 41 41 40 39 37 38 39 40 40 39 40 39 39 39 38 39 38 38 39 40 40 38 38 37 36 36 36 35 36 36 36 34 33 34 32 35 36 34 33 33 33 33 33 33 32
58 57 55 54 53 53 52 51 51 50 48 47 47 45 43 44 45 42 41 41 41 40 38 38 38 39 39 40 41 41 40 40 39 39 40 39 40 40 40 37 35 33 33 34 35 33 33 36 36 33 32 34 35 34 34 33 32 29 31 31 31 31 31
56 55 54 53 52 52 51 51 51 49 48 48 47 44 45 44 43 42 41 43 41 40 39 40 40 40 41 40 41 42 41 39 39 38 38 39 40 39 38 36 32 30 29 29 34 33 32 34 38 33 32 33 33 33 33 32 30 29 29 30 31 33 31
54 54 53 52 51 51 51 51 50 49 47 46 45 45 44 44 42 42 42 41 41 42 41 41 45 43 43 41 42 40 42 42 40 39 39 39 39 38 36 34 31 32 33 34 36 41 38 37 34 35 33 31 29 31 30 30 29 29 29 29 31 32 31
54 53 52 52 51 53 54 51 49 48 47 46 45 45 44 43 42 43 42 42 43 43 42 40 39 38 38 40 43 43 42 42 41 40 40 40 39 38 33 29 33 38 39 38 39 40 38 39 38 38 37 40 35 34 29 27 27 29 27 32 33 32 30
53 52 52 51 53 55 53 50 49 47 47 46 46 46 45 44 43 45 44 43 44 44 45 42 37 38 39 38 41 49 43 42 43 41 40 39 38 39 39 39 40 42 42 40 38 36 39 38 38 37 37 37 37 37 39 36 28 28 30 32 32 32 31
53 52 51 53 54 52 51 50 48 47 46 47 46 45 44 46 44 45 45 43 45 45 46 38 38 38 38 38 38 43 42 43 42 41 42 41 39 39 39 40 38 35 29 31 35 36 37 36 39 38 37 38 37 35 33 33 36 35 33 32 33 31 29
53 53 53 52 52 50 50 51 49 47 47 47 47 46 46 46 45 45 45 45 45 45 46 40 38 38 38 37 37 39 44 43 43 41 41 41 41 41 40 40 39 38 37 38 35 35 35 37 39 39 40 37 35 38 39 35 34 34 38 36 34 31 32
52 51 51 50 50 50 50 50 47 46 47 47 47 46 45 45 45 45 45 45 45 45 48 39 37 38 37 37 37 37 44 43 42 42 42 43 42 41 40 41 41 40 40 34 32 32 37 37 40 38 38 38 39 40 39 39 39 37 36 36 36 36 36
50 50 50 49 49 49 49 48 47 48 48 47 46 46 45 45 46 45 45 45 45 45 47 37 37 37 37 37 37 41 42 42 42 42 42 42 41 42 39 40 40 39 38 32 38 31 37 37 40 38 37 38 39 39 39 42 37 36 39 38 38 38 39
50 49 49 49 48 49 49 48 48 47 47 46 46 44 45 45 46 46 45 45 45 45 44 38 36 37 37 37 38 40 42 41 40 42 42 42 41 41 38 38 39 37 39 33 37 33 35 37 38 38 37 39 39 38 36 38 41 35 35 35 35 35 35
50 49 49 48 48 49 49 48 47 48 47 45 47 47 47 50 47 45 45 44 44 45 45 39 37 37 37 37 40 39 40 42 40 42 42 42 41 41 40 47 45 38 39 35 34 33 34 39 39 39 38 39 38 36 36 35 38 39 38 36 35 35 35
49 48 48 48 49 49 49 50 51 50 50 50 48 48 47 44 49 46 44 46 48 45 46 41 37 37 37 37 40 39 38 40 40 41 41 41 41 40 40 40 44 40 42 38 33 35 34 36 38 39 38 39 36 35 36 35 36 36 37 39 40 42 42
49 49 48 48 48 48 47 47 46 46 46 43 43 44 46 43 44 46 46 44 46 44 46 43 40 37 37 37 37 40 40 40 39 41 40 39 39 40 39 33 38 35 34 33 34 35 35 35 34 38 39 39 36 34 34 33 35 36 37 38 38 36 35
50 49 48 47 47 46 46 46 46 45 44 44 44 44 46 44 43 45 45 44 45 44 46 45 42 37 37 37 37 37 39 41 40 40 39 38 36 38 37 30 27 36 34 34 35 34 35 34 35 37 37 39 37 40 33 32 35 39 38 38 35 33 32
50 48 47 47 46 46 46 45 45 44 42 42 42 42 40 40 39 40 41 43 44 45 47 47 46 38 37 37 36 36 39 40 42 42 39 37 36 36 36 34 32 34 33 34 34 35 35 35 35 36 49 31 32 32 38 33 33 35 35 33 31 29 30
50 50 48 47 46 45 44 44 43 42 42 41 41 40 38 37 39 39 41 42 43 44 45 48 41 40 37 36 36 36 36 38 36 40 40 38 36 35 35 35 38 34 33 34 34 35 35 35 36 35 33 33 33 33 35 31 33 36 32 31 32 30 29
50 50 49 47 47 45 45 44 43 42 41 40 39 38 35 37 37 38 41 41 43 41 42 43 40 39 38 36 36 35 35 35 34 37 38 41 37 35 35 37 34 33 33 34 34 34 35 35 33 33 33 33 33 33 32 32 34 34 31 29 28 28 30